Temp
62 61 63 63 63 64 63 63 63 63 63 63 62 62 62 62 62 60 60 59 60 61 61 59 58 58 58 59 58 57 57 56 56 55 54 55 54 54 57 56 56 58 57 57 57 54 53 50 53 59 58 59 60 60 61 62 62 62 62 64 65 67 68
64 63 63 64 63 63 62 62 63 64 62 61 62 61 61 61 61 60 59 59 59 59 60 58 58 59 57 56 56 55 55 55 56 57 53 53 54 53 53 53 53 53 53 55 55 55 51 49 49 51 52 57 58 57 59 60 61 61 62 63 65 66 66
62 62 62 61 62 62 61 61 61 62 61 60 60 60 60 60 59 60 59 58 57 59 60 58 57 57 57 56 55 54 54 53 54 54 53 52 54 53 53 52 52 51 51 52 52 52 51 51 47 49 51 51 50 54 57 58 59 60 61 62 62 64 64
60 60 60 60 61 61 61 61 61 61 61 59 58 58 58 58 58 59 58 58 58 59 58 57 56 56 56 55 55 54 54 53 52 53 53 53 53 52 53 51 51 52 51 49 49 50 50 48 48 48 50 52 51 50 54 57 58 59 61 61 61 62 63
62 62 61 60 60 61 60 60 60 59 58 57 56 55 56 57 57 56 57 56 57 56 56 57 57 57 57 56 54 55 54 54 54 55 53 53 53 52 53 53 53 54 53 51 51 51 49 49 48 48 49 50 51 51 55 56 58 58 59 59 60 61 62
63 62 61 61 61 61 60 59 57 55 55 55 54 55 55 56 56 55 55 55 55 57 56 56 56 56 56 56 55 55 54 54 54 54 53 53 52 52 52 53 54 55 53 52 52 51 50 50 49 47 48 50 46 48 52 53 53 56 58 58 59 60 60
60 61 61 60 60 60 60 58 56 55 54 54 54 54 55 57 56 56 56 55 55 56 56 56 56 56 55 56 55 54 54 54 55 53 53 53 53 53 53 53 53 53 52 53 52 52 50 49 48 46 45 46 47 46 49 50 53 51 54 57 59 59 59
60 60 60 61 61 60 60 58 56 55 55 55 55 56 56 55 55 56 56 55 55 54 55 55 56 55 54 55 55 54 54 54 54 54 53 53 53 52 52 52 53 52 52 52 52 51 51 49 47 46 45 41 42 44 44 48 49 49 50 54 57 57 57
61 60 60 60 60 60 59 57 55 55 55 54 56 55 55 55 55 55 55 54 54 54 55 55 55 54 54 53 53 53 53 56 53 53 52 53 52 52 51 52 51 51 51 52 52 50 50 49 48 47 46 44 40 38 42 41 44 45 51 49 53 55 55
59 59 59 59 59 58 57 55 55 54 54 55 56 55 54 54 54 54 54 54 54 54 54 54 54 54 54 53 53 52 52 53 53 52 52 52 52 52 50 51 50 51 51 51 50 50 49 49 48 47 47 44 43 40 38 38 41 41 46 50 46 51 54
59 59 59 58 58 57 55 55 55 54 54 56 56 57 54 54 54 56 53 53 53 54 53 53 53 53 53 52 52 52 52 52 52 52 53 52 52 52 51 52 51 50 50 50 49 49 49 48 47 47 47 47 45 41 40 38 39 44 44 48 49 48 52
58 58 58 58 57 56 54 54 53 53 54 55 55 53 54 54 54 53 53 53 53 53 53 52 52 52 51 51 52 51 51 52 51 50 51 52 52 52 51 50 50 49 49 49 48 48 48 48 47 47 47 47 46 44 42 41 38 44 47 44 48 51 50
58 59 59 58 57 55 55 55 54 54 54 55 54 54 54 53 53 53 53 52 52 51 51 51 51 51 51 50 51 52 52 51 51 50 50 51 53 51 50 49 49 48 48 48 47 47 46 47 47 46 47 46 46 45 44 42 40 40 47 46 47 49 51
58 58 57 56 55 54 54 55 54 54 55 53 54 54 54 53 53 52 52 52 51 50 50 50 50 50 50 49 50 51 50 51 50 49 51 50 52 51 49 48 48 48 48 46 46 46 46 46 46 46 46 46 45 45 45 43 41 41 44 48 48 48 50
56 56 55 55 54 54 54 53 53 54 53 53 54 54 53 53 52 52 51 50 49 49 49 48 48 48 49 49 49 53 51 51 50 49 50 49 49 50 49 48 47 47 46 44 45 46 46 45 46 45 45 45 44 44 46 44 42 41 41 46 47 50 50
55 54 54 53 54 54 53 53 54 53 53 53 54 54 53 53 52 51 50 49 48 48 47 47 47 47 48 48 48 49 50 50 49 49 49 49 49 49 47 47 46 45 47 44 45 45 45 45 45 44 44 44 43 44 46 46 44 41 42 43 47 47 48
54 53 53 52 52 52 53 53 54 53 53 53 53 53 53 52 51 50 49 48 47 46 46 46 46 46 47 47 47 48 49 48 49 48 49 49 48 48 46 45 45 45 44 44 44 44 44 44 44 43 43 43 43 44 46 46 46 44 43 42 45 46 47
52 52 52 52 52 53 53 53 53 52 52 52 52 53 53 52 50 49 47 47 46 45 45 45 44 45 46 46 47 47 48 48 49 48 48 49 51 47 46 45 45 45 44 43 43 43 43 43 43 43 42 42 43 44 46 46 46 46 44 43 44 47 48
52 52 52 52 52 53 53 53 53 53 54 53 52 52 51 51 50 48 47 46 46 45 44 43 43 43 44 45 45 46 47 48 49 48 47 48 48 47 45 45 46 45 44 42 42 42 42 42 42 42 41 42 42 43 43 45 46 45 44 44 44 44 46
51 52 52 51 52 52 52 52 53 53 54 53 52 51 51 50 49 48 47 46 45 44 43 42 41 41 42 43 44 45 46 47 49 48 47 48 48 47 47 46 46 45 43 42 42 42 41 41 42 41 42 41 42 41 42 43 44 43 43 42 43 44 44
52 52 51 51 52 52 52 52 52 52 53 52 52 51 50 49 48 48 46 45 45 44 42 41 41 40 41 42 42 44 45 46 48 47 47 47 47 47 48 47 46 44 43 42 42 42 41 41 41 41 42 42 42 41 41 42 42 42 42 41 41 42 44
52 52 52 52 52 52 52 51 51 52 51 52 52 51 51 49 48 46 45 44 43 43 42 42 41 40 40 41 41 43 44 45 47 48 46 46 46 46 46 46 45 45 48 51 49 47 47 47 43 41 42 42 42 41 40 41 41 41 41 41 41 43 42
52 51 51 51 51 51 50 50 51 51 51 51 51 51 50 49 47 46 44 43 43 43 42 42 43 43 43 41 41 42 44 44 46 46 47 45 46 46 46 45 49 53 51 50 48 47 45 45 46 45 43 42 42 40 40 40 41 41 40 40 40 40 40
52 51 51 51 50 50 50 50 50 50 50 51 51 51 49 47 46 45 44 42 41 42 42 43 42 41 41 42 43 41 42 44 46 46 46 45 45 46 46 44 44 49 48 48 46 46 44 44 44 44 44 45 45 43 41 41 41 41 40 40 40 40 40
51 51 51 50 50 50 50 50 50 49 49 49 50 49 48 47 45 44 43 41 40 41 41 43 41 42 41 41 43 42 42 44 47 46 47 46 46 45 45 44 44 46 46 46 46 43 44 45 44 43 43 43 43 43 44 43 42 41 41 40 39 41 41
51 50 51 51 50 50 50 49 49 48 48 48 49 48 47 46 45 44 43 42 41 40 39 42 41 42 41 41 42 44 46 46 47 46 45 46 46 44 44 45 43 44 45 51 49 42 41 42 44 44 44 44 44 44 43 42 43 44 43 40 41 42 43
50 50 50 50 50 49 49 48 47 47 48 48 47 47 47 46 45 44 43 42 40 40 39 42 41 42 41 41 41 44 47 46 46 47 47 47 45 44 43 43 42 43 41 42 43 42 42 41 41 41 41 42 42 44 44 44 44 44 45 44 43 42 45
51 50 50 50 49 49 49 48 49 48 48 47 46 46 46 45 45 45 43 42 42 41 41 41 41 41 41 41 42 44 44 46 46 45 45 46 46 43 43 43 43 43 41 42 44 45 43 41 40 41 41 41 42 43 43 44 45 45 45 45 45 45 46
50 50 50 49 49 48 47 47 47 47 46 45 45 45 45 46 44 43 43 42 41 39 39 40 41 41 41 41 43 44 43 43 44 44 44 45 46 43 43 43 43 43 41 42 46 44 44 43 41 41 41 41 41 42 43 47 46 45 46 45 45 46 47
50 50 50 49 47 46 47 47 47 48 46 45 44 44 43 44 45 44 43 42 40 38 38 40 40 42 41 41 42 42 41 43 42 42 42 43 44 44 43 44 43 43 42 44 46 42 42 43 42 41 40 40 41 41 42 45 46 45 44 43 43 43 42
50 49 48 47 47 47 47 47 47 48 46 45 45 45 44 44 43 43 43 41 41 39 39 42 41 41 41 41 42 40 40 41 41 40 41 43 44 43 43 52 50 44 44 45 44 42 42 43 42 41 39 39 39 39 41 44 45 45 45 44 43 43 44
50 49 48 48 48 47 47 48 48 48 47 47 47 46 46 44 43 43 42 43 47 42 39 43 43 42 42 40 41 39 40 39 40 39 40 41 43 44 44 46 49 48 47 45 42 42 42 43 41 40 39 38 37 38 41 43 42 43 43 42 46 48 47
49 49 48 47 47 47 47 48 48 48 47 47 47 45 45 45 44 43 44 45 45 42 41 41 43 43 42 41 41 39 40 38 39 39 39 42 42 42 42 43 45 44 43 42 42 41 41 41 41 40 39 37 37 39 44 42 44 45 43 43 45 47 46
50 49 48 48 48 49 48 48 47 47 46 47 46 45 46 46 45 44 44 43 44 43 43 40 41 43 43 41 40 41 37 38 37 37 37 39 39 39 40 41 42 44 43 42 41 41 40 40 41 41 39 39 40 43 42 41 43 45 43 44 45 45 45
50 50 49 49 48 47 47 48 48 48 47 46 47 47 46 46 45 45 45 44 43 42 46 46 40 42 42 41 41 41 40 39 39 38 39 39 39 39 40 40 42 44 42 41 40 40 40 40 40 42 42 40 41 42 44 43 42 44 44 44 44 44 43
50 51 50 49 48 48 48 49 49 49 48 47 47 47 46 46 45 45 44 44 42 42 41 43 43 41 43 41 41 41 40 39 39 39 38 38 38 39 39 41 43 44 40 40 40 40 40 40 41 43 42 41 41 42 43 42 43 43 43 43 42 42 42
50 49 49 50 50 49 48 48 49 49 47 47 47 46 45 47 45 44 43 42 43 42 42 42 44 44 42 41 41 41 40 40 40 39 40 39 40 39 40 41 42 40 40 40 40 40 40 41 42 42 42 41 41 44 42 41 43 42 41 41 41 41 41
MSLP
1020.59 1021.07 1021.23 1021.51 1021.63 1021.79 1021.95 1022.11 1022.11 1022.19 1022.19 1022.23 1022.27 1022.23 1022.27 1022.31 1022.43 1022.51 1022.43 1022.39 1022.35 1022.31 1022.35 1022.47 1022.63 1022.67 1022.71 1022.71 1022.67 1022.63 1022.55 1022.51 1022.51 1022.71 1022.87 1022.71 1022.67 1022.75 1022.31 1022.19 1021.99 1021.83 1021.71 1021.71 1021.91 1022.11 1022.07 1021.87 1019.79 1018.95 1019.35 1019.59 1019.35 1019.35 1019.47 1019.27 1019.07 1018.91 1018.55 1018.11 1017.79 1017.47 1017.15
1020.63 1021.03 1021.31 1021.59 1021.87 1021.99 1022.15 1022.23 1022.27 1022.39 1022.47 1022.47 1022.43 1022.47 1022.51 1022.63 1022.67 1022.75 1022.67 1022.55 1022.51 1022.51 1022.55 1022.67 1022.75 1022.75 1022.83 1022.91 1022.87 1022.79 1022.75 1022.75 1022.71 1022.75 1022.83 1022.83 1022.71 1022.75 1022.55 1022.39 1022.23 1022.15 1022.03 1021.99 1022.19 1022.11 1022.39 1022.43 1021.83 1021.47 1020.35 1019.11 1019.27 1019.63 1019.59 1019.59 1019.51 1019.27 1018.91 1018.55 1018.23 1017.83 1017.63
1020.83 1021.19 1021.51 1021.83 1022.07 1022.19 1022.35 1022.43 1022.51 1022.63 1022.67 1022.71 1022.75 1022.79 1022.87 1022.91 1022.91 1022.87 1022.83 1022.71 1022.71 1022.71 1022.75 1022.83 1022.87 1022.87 1022.91 1022.91 1022.91 1022.91 1022.91 1022.87 1022.79 1022.75 1022.75 1022.75 1022.59 1022.51 1022.39 1022.43 1022.35 1022.35 1022.27 1022.35 1022.47 1022.55 1022.43 1022.39 1022.99 1022.31 1021.83 1021.39 1020.47 1019.51 1019.91 1019.67 1019.47 1019.27 1018.99 1018.71 1018.35 1018.11 1017.99
1021.03 1021.35 1021.75 1022.11 1022.27 1022.47 1022.59 1022.71 1022.75 1022.87 1022.91 1023.03 1023.11 1023.15 1023.15 1023.15 1023.07 1022.99 1022.95 1022.91 1022.87 1022.95 1022.95 1022.95 1023.03 1023.03 1022.99 1022.99 1022.99 1022.95 1022.91 1022.91 1022.87 1022.83 1022.79 1022.79 1022.71 1022.59 1022.51 1022.43 1022.35 1022.43 1022.75 1022.95 1022.99 1022.91 1022.95 1022.95 1022.75 1022.51 1022.27 1021.87 1021.79 1020.75 1019.87 1020.07 1019.79 1019.43 1019.23 1018.83 1018.63 1018.47 1018.27
1020.99 1021.39 1021.83 1022.31 1022.47 1022.67 1022.79 1022.91 1023.03 1023.15 1023.31 1023.39 1023.47 1023.47 1023.43 1023.31 1023.23 1023.19 1023.15 1023.15 1023.15 1023.19 1023.19 1023.15 1023.15 1023.19 1023.19 1023.19 1023.15 1023.07 1023.03 1022.95 1022.99 1023.03 1023.07 1023.03 1022.95 1022.83 1022.67 1022.71 1022.67 1022.67 1022.83 1022.99 1023.07 1023.07 1023.11 1023.07 1022.99 1022.83 1022.51 1022.11 1021.75 1021.63 1020.83 1020.19 1019.95 1019.79 1019.35 1019.11 1018.99 1018.79 1018.55
1021.15 1021.51 1021.99 1022.35 1022.59 1022.75 1022.87 1023.07 1023.27 1023.55 1023.63 1023.63 1023.71 1023.63 1023.51 1023.43 1023.39 1023.39 1023.43 1023.47 1023.43 1023.39 1023.39 1023.31 1023.35 1023.35 1023.35 1023.35 1023.31 1023.19 1023.19 1023.19 1023.23 1023.27 1023.31 1023.27 1023.27 1023.15 1023.15 1023.11 1023.03 1023.07 1023.19 1023.19 1023.19 1023.27 1023.23 1023.15 1023.11 1023.23 1022.91 1022.67 1022.63 1021.91 1021.19 1020.95 1020.27 1019.91 1019.63 1019.47 1019.27 1019.03 1018.79
1021.67 1021.87 1022.27 1022.59 1022.79 1022.87 1022.95 1023.15 1023.47 1023.67 1023.83 1023.87 1023.75 1023.67 1023.59 1023.55 1023.59 1023.63 1023.67 1023.67 1023.67 1023.63 1023.59 1023.59 1023.59 1023.63 1023.55 1023.51 1023.47 1023.43 1023.39 1023.43 1023.35 1023.47 1023.51 1023.43 1023.39 1023.39 1023.39 1023.43 1023.47 1023.51 1023.51 1023.47 1023.51 1023.51 1023.63 1023.63 1023.75 1023.87 1023.67 1023.23 1022.95 1022.59 1021.95 1021.31 1020.87 1020.43 1019.59 1019.79 1019.59 1019.31 1019.11
1022.03 1022.27 1022.55 1022.71 1022.79 1022.95 1023.11 1023.39 1023.63 1023.75 1023.79 1023.79 1023.71 1023.63 1023.67 1023.71 1023.79 1023.83 1023.83 1023.91 1023.95 1023.91 1023.87 1023.87 1023.87 1023.83 1023.75 1023.63 1023.63 1023.67 1023.59 1023.59 1023.59 1023.67 1023.71 1023.63 1023.67 1023.67 1023.67 1023.71 1023.71 1023.75 1023.83 1023.87 1023.91 1024.15 1024.19 1024.39 1024.51 1024.43 1024.23 1024.03 1023.35 1023.07 1022.63 1022.11 1021.51 1021.27 1020.91 1020.03 1019.83 1019.63 1019.55
1022.23 1022.47 1022.67 1022.83 1022.91 1023.03 1023.27 1023.51 1023.67 1023.71 1023.75 1023.71 1023.71 1023.71 1023.83 1023.87 1023.95 1024.07 1024.11 1024.15 1024.19 1024.15 1024.11 1024.07 1024.03 1023.99 1023.95 1023.91 1023.91 1023.91 1023.91 1023.87 1023.87 1023.91 1023.91 1023.79 1023.79 1023.87 1023.79 1023.79 1023.95 1024.11 1024.23 1024.35 1024.43 1024.63 1024.71 1024.75 1024.71 1024.63 1024.51 1024.51 1024.55 1023.99 1023.19 1022.83 1022.31 1021.71 1021.23 1020.71 1019.83 1019.87 1019.87
1022.51 1022.67 1022.79 1022.91 1023.07 1023.23 1023.39 1023.51 1023.59 1023.67 1023.71 1023.75 1023.79 1023.87 1023.95 1024.07 1024.15 1024.27 1024.35 1024.39 1024.39 1024.35 1024.31 1024.23 1024.15 1024.15 1024.15 1024.19 1024.19 1024.19 1024.23 1024.15 1024.11 1024.15 1024.07 1024.07 1024.07 1024.03 1024.11 1024.15 1024.39 1024.59 1024.75 1024.75 1024.83 1024.87 1024.95 1024.91 1024.87 1024.83 1024.71 1024.79 1024.75 1024.83 1024.27 1023.83 1023.07 1022.39 1021.23 1021.27 1021.03 1019.67 1019.83
1022.67 1022.75 1022.79 1022.95 1023.15 1023.31 1023.43 1023.51 1023.59 1023.67 1023.75 1023.83 1023.91 1023.99 1024.15 1024.31 1024.43 1024.47 1024.59 1024.63 1024.59 1024.55 1024.51 1024.43 1024.39 1024.39 1024.35 1024.39 1024.39 1024.39 1024.43 1024.31 1024.35 1024.35 1024.31 1024.27 1024.27 1024.31 1024.47 1024.63 1024.79 1024.95 1025.07 1025.07 1025.15 1025.15 1025.11 1025.11 1025.03 1024.95 1024.87 1024.71 1024.67 1024.87 1024.75 1024.59 1023.67 1022.87 1022.03 1021.47 1021.27 1020.55 1019.79
1022.63 1022.75 1022.87 1023.07 1023.23 1023.35 1023.51 1023.63 1023.71 1023.79 1023.87 1023.95 1024.03 1024.23 1024.39 1024.55 1024.67 1024.79 1024.79 1024.83 1024.83 1024.79 1024.75 1024.75 1024.67 1024.67 1024.67 1024.59 1024.59 1024.59 1024.55 1024.51 1024.55 1024.59 1024.51 1024.39 1024.43 1024.55 1024.91 1025.07 1025.15 1025.31 1025.39 1025.43 1025.39 1025.35 1025.27 1025.19 1025.11 1025.03 1024.87 1024.75 1024.67 1024.67 1024.67 1024.51 1024.07 1022.59 1022.67 1022.15 1021.39 1021.03 1020.59
1022.67 1022.87 1022.99 1023.11 1023.31 1023.47 1023.59 1023.71 1023.79 1023.91 1024.03 1024.15 1024.31 1024.47 1024.63 1024.79 1024.91 1024.99 1025.03 1025.07 1025.11 1025.11 1025.15 1025.11 1025.07 1025.07 1025.03 1024.91 1024.75 1024.75 1024.71 1024.67 1024.67 1024.67 1024.63 1024.63 1024.67 1024.99 1025.23 1025.43 1025.51 1025.63 1025.67 1025.63 1025.59 1025.51 1025.43 1025.31 1025.19 1025.11 1024.95 1024.83 1024.71 1024.59 1024.51 1024.35 1024.23 1023.27 1022.63 1022.39 1021.95 1021.35 1020.87
1022.79 1022.91 1023.03 1023.19 1023.43 1023.59 1023.75 1023.83 1023.99 1024.07 1024.15 1024.31 1024.43 1024.63 1024.79 1024.99 1025.11 1025.19 1025.27 1025.39 1025.47 1025.55 1025.55 1025.51 1025.47 1025.43 1025.35 1025.27 1024.99 1024.87 1024.83 1024.79 1024.79 1024.79 1024.83 1024.91 1024.99 1025.31 1025.55 1025.67 1025.75 1025.79 1025.79 1025.75 1025.71 1025.59 1025.47 1025.39 1025.27 1025.19 1025.07 1024.95 1024.87 1024.71 1024.51 1024.39 1024.11 1023.47 1022.79 1022.47 1022.11 1021.51 1020.91
1022.83 1022.99 1023.23 1023.43 1023.63 1023.79 1023.95 1024.07 1024.19 1024.27 1024.39 1024.51 1024.59 1024.83 1024.99 1025.15 1025.27 1025.43 1025.59 1025.75 1025.87 1025.91 1025.91 1025.91 1025.87 1025.79 1025.75 1025.67 1025.31 1025.03 1025.07 1024.95 1024.91 1025.07 1025.07 1025.23 1025.35 1025.59 1025.75 1025.83 1025.91 1025.91 1025.79 1025.83 1025.71 1025.71 1025.67 1025.63 1025.47 1025.35 1025.23 1025.15 1025.07 1024.91 1024.63 1024.47 1024.19 1023.83 1023.03 1022.23 1021.75 1021.35 1020.79
1022.95 1023.19 1023.39 1023.59 1023.75 1023.91 1024.03 1024.19 1024.31 1024.43 1024.51 1024.59 1024.75 1024.95 1025.15 1025.31 1025.51 1025.71 1025.91 1026.11 1026.23 1026.31 1026.35 1026.31 1026.23 1026.15 1026.11 1025.99 1025.75 1025.23 1025.19 1025.07 1025.11 1025.27 1025.39 1025.51 1025.59 1025.79 1025.91 1025.99 1025.99 1025.91 1025.83 1025.87 1025.99 1025.99 1025.95 1025.87 1025.79 1025.71 1025.59 1025.35 1025.23 1024.95 1024.63 1024.35 1024.11 1023.71 1023.15 1022.43 1021.91 1021.31 1020.87
1023.15 1023.43 1023.63 1023.83 1023.95 1024.11 1024.23 1024.35 1024.47 1024.51 1024.63 1024.75 1024.95 1025.11 1025.27 1025.55 1025.79 1026.03 1026.23 1026.43 1026.55 1026.67 1026.67 1026.63 1026.55 1026.51 1026.47 1026.27 1026.07 1025.71 1025.27 1025.19 1025.27 1025.39 1025.47 1025.55 1025.67 1025.87 1025.99 1025.99 1025.91 1025.83 1025.95 1026.15 1026.23 1026.23 1026.11 1026.07 1025.95 1025.83 1025.71 1025.47 1025.23 1024.95 1024.55 1024.19 1023.91 1023.63 1023.11 1022.59 1021.75 1021.51 1020.83
1023.35 1023.55 1023.75 1023.87 1023.99 1024.11 1024.27 1024.47 1024.59 1024.67 1024.75 1024.95 1025.11 1025.27 1025.55 1025.79 1026.11 1026.35 1026.55 1026.75 1026.87 1026.95 1027.03 1026.99 1026.87 1026.79 1026.63 1026.47 1026.27 1026.07 1025.59 1025.35 1025.35 1025.47 1025.55 1025.59 1025.71 1025.87 1025.91 1025.83 1025.83 1025.95 1026.19 1026.35 1026.35 1026.31 1026.19 1026.03 1025.95 1025.87 1025.71 1025.47 1025.23 1024.87 1024.47 1024.07 1023.67 1023.35 1022.99 1022.51 1021.75 1021.23 1020.83
1023.51 1023.71 1023.87 1023.95 1023.99 1024.11 1024.31 1024.47 1024.63 1024.75 1024.87 1025.11 1025.27 1025.47 1025.75 1026.07 1026.35 1026.67 1026.87 1027.03 1027.11 1027.19 1027.27 1027.27 1027.27 1027.15 1026.91 1026.71 1026.47 1026.19 1025.95 1025.51 1025.43 1025.43 1025.59 1025.67 1025.75 1025.79 1025.75 1025.83 1025.99 1026.23 1026.31 1026.39 1026.43 1026.31 1026.23 1026.07 1025.95 1025.79 1025.59 1025.39 1025.11 1024.83 1024.47 1023.99 1023.55 1023.23 1022.91 1022.47 1021.95 1021.15 1020.79
1023.55 1023.75 1023.87 1023.95 1024.03 1024.19 1024.39 1024.59 1024.71 1024.87 1024.99 1025.19 1025.39 1025.67 1025.99 1026.31 1026.59 1026.87 1027.11 1027.23 1027.31 1027.39 1027.43 1027.47 1027.43 1027.31 1027.15 1026.95 1026.71 1026.43 1026.15 1025.83 1025.47 1025.47 1025.59 1025.67 1025.71 1025.71 1025.71 1025.87 1026.19 1026.27 1026.27 1026.31 1026.27 1026.23 1026.15 1025.99 1025.83 1025.67 1025.43 1025.23 1024.95 1024.75 1024.39 1023.91 1023.43 1023.11 1022.75 1022.39 1021.87 1021.43 1020.87
1023.59 1023.79 1023.91 1023.99 1024.11 1024.31 1024.51 1024.67 1024.83 1024.95 1025.11 1025.31 1025.51 1025.83 1026.19 1026.47 1026.79 1026.99 1027.23 1027.35 1027.47 1027.51 1027.55 1027.59 1027.55 1027.47 1027.27 1027.11 1026.87 1026.55 1026.35 1026.07 1025.55 1025.51 1025.59 1025.75 1025.71 1025.71 1025.71 1025.91 1026.15 1026.15 1026.15 1026.11 1026.03 1026.03 1025.91 1025.83 1025.67 1025.51 1025.19 1024.99 1024.75 1024.55 1024.23 1023.79 1023.31 1022.95 1022.59 1022.23 1021.83 1021.19 1020.67
1023.63 1023.79 1023.95 1024.07 1024.19 1024.39 1024.63 1024.79 1024.87 1024.99 1025.19 1025.43 1025.71 1026.03 1026.31 1026.59 1026.91 1027.19 1027.35 1027.47 1027.55 1027.63 1027.71 1027.75 1027.75 1027.59 1027.35 1027.03 1026.91 1026.67 1026.43 1026.11 1025.75 1025.47 1025.67 1025.83 1025.75 1025.67 1025.63 1025.75 1025.95 1025.87 1025.83 1025.87 1025.87 1025.79 1025.67 1025.55 1025.47 1025.39 1025.03 1024.83 1024.55 1024.35 1024.07 1023.67 1023.15 1022.79 1022.43 1022.07 1021.55 1021.03 1020.59
1023.67 1023.87 1024.03 1024.15 1024.35 1024.55 1024.79 1024.91 1024.99 1025.11 1025.31 1025.59 1025.87 1026.15 1026.47 1026.75 1027.03 1027.27 1027.43 1027.55 1027.67 1027.79 1027.87 1027.83 1027.79 1027.63 1027.43 1027.27 1026.99 1026.75 1026.35 1025.95 1025.83 1025.55 1025.67 1025.87 1025.83 1025.67 1025.63 1025.67 1025.75 1025.75 1025.83 1025.87 1025.75 1025.59 1025.51 1025.39 1025.19 1025.11 1024.87 1024.59 1024.31 1024.11 1023.91 1023.47 1022.99 1022.63 1022.31 1021.91 1021.47 1020.99 1020.43
1023.71 1023.95 1024.11 1024.23 1024.43 1024.71 1024.95 1025.07 1025.15 1025.23 1025.35 1025.67 1025.99 1026.31 1026.67 1026.95 1027.23 1027.39 1027.51 1027.63 1027.75 1027.83 1027.87 1027.83 1027.67 1027.43 1027.35 1027.19 1026.91 1026.63 1026.31 1026.03 1025.87 1025.59 1025.55 1025.79 1025.87 1025.71 1025.63 1025.67 1025.83 1025.83 1025.83 1025.79 1025.59 1025.47 1025.43 1025.27 1025.07 1024.83 1024.63 1024.35 1024.07 1023.87 1023.59 1023.19 1022.79 1022.43 1022.11 1021.75 1021.27 1020.87 1020.39
1023.79 1023.99 1024.15 1024.31 1024.55 1024.83 1024.99 1025.11 1025.23 1025.31 1025.43 1025.71 1026.07 1026.39 1026.75 1027.07 1027.27 1027.47 1027.63 1027.75 1027.79 1027.83 1027.83 1027.75 1027.47 1027.19 1026.87 1026.71 1026.75 1026.59 1026.31 1025.99 1025.87 1025.63 1025.51 1025.55 1025.75 1025.71 1025.63 1025.79 1025.95 1025.91 1025.75 1025.59 1025.47 1025.43 1025.39 1025.15 1024.91 1024.71 1024.51 1024.23 1023.87 1023.47 1023.19 1022.99 1022.63 1022.23 1021.83 1021.51 1021.11 1020.67 1020.15
1023.79 1024.03 1024.19 1024.35 1024.63 1024.91 1025.11 1025.27 1025.35 1025.39 1025.51 1025.75 1026.07 1026.47 1026.83 1027.07 1027.31 1027.51 1027.59 1027.75 1027.83 1027.91 1027.87 1027.71 1027.43 1027.19 1026.99 1026.79 1026.59 1026.43 1026.27 1026.15 1026.03 1025.87 1025.67 1025.55 1025.63 1025.63 1025.71 1025.91 1025.99 1025.83 1025.67 1025.51 1025.39 1025.35 1025.31 1025.07 1024.75 1024.55 1024.27 1023.99 1023.63 1023.27 1022.91 1022.51 1022.23 1021.99 1021.59 1021.39 1020.95 1020.35 1019.91
1023.79 1023.99 1024.19 1024.43 1024.75 1025.03 1025.19 1025.35 1025.43 1025.55 1025.63 1025.75 1026.03 1026.47 1026.79 1027.03 1027.23 1027.43 1027.55 1027.63 1027.79 1027.79 1027.79 1027.67 1027.35 1027.15 1026.95 1026.83 1026.71 1026.55 1026.47 1026.35 1026.31 1026.31 1026.27 1026.15 1025.87 1025.59 1025.91 1025.99 1025.91 1025.79 1025.63 1025.47 1025.31 1025.23 1025.11 1024.91 1024.75 1024.47 1024.19 1023.87 1023.51 1023.03 1022.67 1022.27 1021.83 1021.47 1021.23 1020.99 1020.67 1020.23 1019.43
1023.75 1023.95 1024.19 1024.51 1024.83 1025.07 1025.23 1025.35 1025.43 1025.59 1025.71 1025.87 1025.99 1026.23 1026.67 1026.95 1027.15 1027.31 1027.47 1027.59 1027.63 1027.71 1027.75 1027.55 1027.27 1027.15 1027.07 1026.95 1026.83 1026.71 1026.71 1026.55 1026.51 1026.47 1026.43 1026.31 1026.15 1026.03 1025.95 1025.91 1025.79 1025.71 1025.59 1025.43 1025.19 1024.91 1024.79 1024.79 1024.67 1024.35 1024.03 1023.67 1023.27 1022.87 1022.47 1022.07 1021.55 1021.15 1020.83 1020.59 1020.31 1019.87 1019.27
1023.67 1023.95 1024.23 1024.55 1024.83 1025.11 1025.27 1025.39 1025.55 1025.75 1025.91 1026.07 1026.19 1026.27 1026.47 1026.75 1027.07 1027.31 1027.39 1027.47 1027.59 1027.67 1027.67 1027.51 1027.23 1027.15 1027.15 1027.07 1026.99 1026.99 1026.95 1026.83 1026.79 1026.71 1026.59 1026.51 1026.35 1026.27 1026.03 1025.83 1025.75 1025.71 1025.55 1025.39 1024.83 1024.55 1024.55 1024.63 1024.43 1024.15 1023.83 1023.47 1023.07 1022.67 1022.27 1021.71 1021.23 1020.83 1020.55 1020.27 1019.95 1019.51 1018.91
1023.67 1023.91 1024.19 1024.55 1024.87 1025.07 1025.19 1025.31 1025.51 1025.67 1025.91 1026.15 1026.31 1026.39 1026.47 1026.63 1026.91 1027.15 1027.35 1027.35 1027.43 1027.67 1027.63 1027.51 1027.35 1027.27 1027.19 1027.15 1027.11 1027.15 1027.07 1026.95 1026.95 1026.87 1026.75 1026.63 1026.51 1026.23 1026.07 1025.87 1025.83 1025.67 1025.47 1025.03 1024.67 1024.63 1024.43 1024.43 1024.27 1023.95 1023.75 1023.39 1022.99 1022.63 1021.99 1021.35 1020.95 1020.55 1020.15 1019.87 1019.51 1019.03 1018.55
1023.55 1023.87 1024.19 1024.51 1024.75 1024.87 1025.03 1025.19 1025.43 1025.67 1025.95 1026.19 1026.35 1026.47 1026.51 1026.67 1026.75 1026.83 1026.95 1027.15 1027.31 1027.43 1027.51 1027.47 1027.39 1027.31 1027.27 1027.27 1027.27 1027.23 1027.19 1027.03 1026.99 1026.99 1026.87 1026.63 1026.51 1026.35 1026.19 1025.95 1025.71 1025.51 1025.31 1025.03 1024.79 1024.67 1024.39 1024.31 1024.19 1023.83 1023.59 1023.39 1022.95 1022.43 1021.71 1021.11 1020.79 1020.39 1019.91 1019.55 1019.15 1018.67 1018.11
1023.51 1023.79 1024.11 1024.39 1024.59 1024.75 1024.87 1025.03 1025.31 1025.51 1025.79 1026.03 1026.27 1026.43 1026.55 1026.63 1026.75 1026.71 1026.75 1026.91 1027.15 1027.27 1027.43 1027.39 1027.35 1027.31 1027.31 1027.39 1027.31 1027.31 1027.23 1027.15 1027.11 1027.03 1027.03 1026.83 1026.55 1026.39 1026.23 1025.99 1025.67 1025.43 1025.27 1025.03 1024.83 1024.63 1024.27 1024.11 1024.11 1023.75 1023.55 1023.47 1023.03 1022.35 1021.51 1020.99 1020.75 1020.19 1019.67 1019.31 1018.75 1018.19 1017.59
1023.51 1023.79 1024.07 1024.31 1024.51 1024.59 1024.71 1024.91 1025.15 1025.39 1025.67 1025.91 1026.15 1026.35 1026.47 1026.59 1026.59 1026.67 1026.67 1026.79 1027.07 1027.23 1027.35 1027.31 1027.31 1027.35 1027.31 1027.35 1027.35 1027.31 1027.27 1027.19 1027.19 1027.19 1027.11 1026.99 1026.87 1026.59 1026.35 1025.99 1025.67 1025.47 1025.19 1024.99 1024.83 1024.55 1024.27 1023.95 1023.91 1023.67 1023.51 1023.31 1022.83 1022.11 1021.23 1021.11 1020.67 1020.11 1019.67 1019.27 1018.63 1018.03 1017.51
1023.43 1023.75 1023.95 1024.11 1024.23 1024.35 1024.43 1024.63 1024.91 1025.15 1025.47 1025.67 1025.87 1026.11 1026.31 1026.47 1026.59 1026.63 1026.67 1026.67 1026.99 1027.15 1027.19 1027.23 1027.31 1027.35 1027.27 1027.27 1027.35 1027.23 1027.19 1027.15 1027.23 1027.23 1027.15 1027.07 1026.95 1026.79 1026.39 1025.99 1025.71 1025.39 1025.15 1024.99 1024.87 1024.51 1024.19 1023.83 1023.51 1023.47 1023.19 1022.99 1022.55 1021.87 1021.43 1021.15 1020.51 1019.99 1019.59 1019.03 1018.47 1017.87 1017.31
1023.39 1023.63 1023.91 1024.03 1024.15 1024.27 1024.39 1024.63 1024.91 1025.11 1025.31 1025.39 1025.51 1025.63 1025.79 1026.11 1026.31 1026.51 1026.71 1026.79 1026.91 1026.95 1027.03 1027.07 1027.23 1027.31 1027.23 1027.15 1027.23 1027.23 1027.15 1027.11 1027.19 1027.23 1027.07 1026.99 1026.91 1026.63 1026.39 1026.07 1025.83 1025.39 1025.19 1025.07 1024.83 1024.39 1024.03 1023.67 1023.27 1023.11 1022.75 1022.55 1022.07 1021.47 1021.11 1020.87 1020.55 1020.03 1019.47 1018.91 1018.39 1017.79 1017.15
1023.31 1023.59 1023.79 1023.91 1023.99 1024.03 1024.15 1024.43 1024.75 1024.87 1024.99 1025.11 1025.23 1025.43 1025.71 1025.87 1026.07 1026.11 1026.55 1026.83 1027.03 1026.99 1027.03 1027.07 1027.15 1027.23 1027.15 1027.07 1027.07 1027.07 1027.11 1027.07 1027.03 1027.11 1027.15 1026.95 1026.83 1026.63 1026.35 1026.15 1025.79 1025.39 1025.15 1024.99 1024.67 1024.15 1023.75 1023.47 1023.19 1022.71 1022.31 1022.11 1021.83 1021.35 1021.07 1020.87 1020.51 1020.11 1019.55 1018.99 1018.43 1017.79 1017.03
1023.27 1023.47 1023.67 1023.75 1023.83 1023.91 1024.11 1024.39 1024.59 1024.71 1024.83 1024.95 1025.11 1025.15 1025.27 1025.47 1025.75 1026.11 1026.35 1026.87 1027.07 1027.07 1027.07 1027.11 1027.19 1027.19 1027.03 1026.99 1026.99 1026.99 1026.99 1026.95 1026.95 1026.99 1026.95 1026.87 1026.71 1026.55 1026.35 1026.15 1025.87 1025.43 1024.99 1024.71 1024.39 1023.91 1023.59 1023.27 1022.95 1022.55 1022.27 1022.03 1021.75 1021.39 1021.23 1020.95 1020.55 1020.15 1019.71 1019.11 1018.51 1017.79 1017.07
Wind_Speed
8 8 7 6 5 5 5 5 5 5 5 6 7 7 8 7 7 6 7 7 7 7 7 7 6 5 6 6 7 6 6 6 7 7 6 6 7 5 6 7 7 6 6 5 7 5 5 8 14 10 3 10 11 6 10 11 13 13 13 12 12 12 10
8 8 7 6 6 5 6 4 5 5 6 7 8 7 8 7 7 6 6 7 7 6 6 6 5 7 7 6 6 6 6 6 5 4 4 5 4 5 3 4 3 4 4 4 6 6 5 6 7 10 15 15 7 4 10 8 10 10 10 10 11 11 9
7 8 6 6 5 4 5 4 4 5 6 7 7 7 7 7 6 6 6 7 6 5 5 6 5 6 5 5 4 4 3 4 3 3 3 3 3 3 3 3 4 4 3 3 4 5 3 3 5 9 10 13 17 13 8 12 12 10 8 10 10 9 11
8 8 7 6 6 4 5 4 5 5 6 6 6 6 6 5 6 6 6 6 6 5 5 6 5 4 4 3 3 3 4 4 3 3 3 4 3 4 5 5 5 6 7 7 7 7 6 5 6 6 7 7 10 15 12 10 10 9 10 9 9 10 10
7 7 8 6 5 6 4 4 5 6 6 6 5 5 5 6 6 6 6 5 6 6 6 6 6 5 6 5 4 4 4 5 5 5 5 7 7 6 7 7 8 7 8 7 6 7 7 7 6 7 7 9 7 6 9 11 7 8 10 8 10 10 10
6 7 7 5 5 5 4 5 6 6 6 6 5 5 5 6 6 6 6 6 6 6 5 5 6 6 6 6 5 5 5 5 7 6 7 7 6 7 7 7 7 8 8 6 7 7 6 6 6 7 7 7 9 9 8 9 8 9 6 9 10 9 10
8 8 7 7 6 5 5 7 6 6 6 4 4 5 4 6 6 5 5 6 5 6 6 6 6 5 5 6 6 6 6 5 7 6 7 7 7 8 7 8 8 8 7 7 7 8 8 9 9 10 9 7 7 9 7 9 8 10 5 8 8 9 9
7 7 6 5 6 5 6 8 6 6 6 5 5 5 6 6 5 6 6 6 6 6 6 6 6 6 5 6 6 6 6 5 7 7 7 7 7 7 7 7 7 8 7 7 8 9 9 9 9 9 10 11 10 7 9 7 10 7 11 9 8 10 9
7 6 6 5 5 6 8 7 7 6 5 5 5 5 5 5 5 6 6 6 6 6 6 6 6 6 7 7 7 7 7 4 6 7 6 7 8 7 6 7 7 7 8 9 9 9 9 8 8 8 8 8 10 12 9 10 8 9 11 11 11 7 9
7 7 7 6 6 7 7 6 6 5 4 4 4 4 5 5 5 5 5 6 6 6 6 6 6 7 7 6 6 7 7 6 6 5 6 7 7 7 5 8 8 9 8 8 8 8 8 8 7 7 6 7 7 8 10 11 10 12 11 10 10 13 11
6 7 6 6 6 6 5 6 4 5 4 4 4 4 5 6 5 5 5 6 6 6 6 6 6 6 6 6 6 6 5 5 6 6 6 6 7 6 7 9 8 8 8 8 8 7 7 7 7 7 6 6 6 7 7 10 12 8 10 10 9 12 13
5 6 5 5 6 6 5 5 4 4 5 4 5 5 6 6 6 6 6 6 6 7 8 7 7 7 5 6 5 6 5 5 6 5 5 5 5 7 9 10 9 8 8 8 7 7 6 7 7 7 7 7 7 6 7 8 12 8 7 10 11 10 13
4 5 6 7 7 7 6 5 5 5 5 5 6 6 6 6 6 7 7 8 8 8 8 8 8 7 7 4 4 6 5 5 5 5 4 5 6 8 9 9 9 8 7 7 7 5 5 5 5 6 7 7 7 7 7 8 10 13 8 9 10 12 14
6 6 7 7 6 5 5 5 5 5 5 5 5 7 7 8 7 7 8 8 8 8 8 8 7 6 6 6 4 4 4 5 4 4 6 7 7 8 9 9 8 8 6 5 5 5 5 6 6 6 6 7 7 7 8 9 11 13 9 7 9 9 11
8 8 8 7 7 6 5 5 4 5 5 4 5 7 7 7 7 8 8 9 8 8 8 7 7 6 7 8 5 4 4 6 6 5 6 6 7 7 7 7 7 5 4 3 5 5 6 7 8 8 8 8 7 8 8 9 10 11 16 11 10 12 12
7 7 7 6 6 6 5 5 5 6 5 6 7 8 8 8 8 8 9 8 8 8 7 6 6 7 7 7 6 4 4 5 4 5 7 7 7 6 6 6 4 3 2 4 6 6 6 8 7 8 9 7 7 7 7 8 8 12 15 14 12 13 12
7 7 6 5 5 5 5 5 5 5 5 6 8 8 9 9 9 9 8 8 8 7 7 7 7 6 6 6 7 6 4 4 4 4 6 6 6 5 5 4 3 3 4 6 6 6 7 7 7 7 7 6 6 7 8 7 8 9 10 13 12 12 11
7 6 6 6 6 6 6 6 4 4 5 6 7 8 8 9 9 8 8 8 7 7 6 6 7 7 7 6 6 7 4 3 5 4 5 5 6 5 3 3 2 5 5 5 5 6 8 9 7 6 6 6 6 6 7 8 8 8 10 12 12 10 11
7 7 6 6 7 6 7 6 6 6 7 8 8 8 8 8 8 9 8 7 6 6 5 5 6 6 6 6 6 6 6 3 4 4 4 5 5 4 3 2 5 6 5 5 4 6 6 7 6 6 6 7 6 6 7 8 8 9 9 11 12 13 11
7 6 6 6 6 6 6 6 6 7 7 8 8 8 8 9 8 9 7 6 6 5 5 5 6 6 5 6 6 6 6 4 4 2 3 5 4 5 4 4 5 4 4 3 4 5 5 5 5 7 7 7 7 7 7 7 8 8 8 9 10 10 11
7 6 5 6 6 7 6 6 6 6 7 8 8 8 9 9 8 7 6 5 5 4 5 6 6 5 5 5 5 5 4 5 2 2 3 4 4 4 5 4 4 4 4 3 4 3 4 5 4 6 7 7 7 8 7 7 7 8 8 8 9 10 9
6 6 7 7 7 7 6 5 5 6 6 6 7 9 8 8 8 7 6 5 5 5 5 5 4 4 6 6 5 5 5 5 2 3 4 3 4 4 4 4 3 2 3 7 6 3 6 6 5 6 7 7 8 8 8 7 8 8 8 8 9 9 10
7 6 7 8 7 6 5 5 5 6 7 8 9 9 9 8 7 6 5 4 4 5 4 4 5 7 6 3 4 4 5 3 3 3 4 3 2 3 3 4 3 9 6 5 5 7 7 9 9 7 7 8 8 8 8 8 9 8 8 9 10 11 12
7 8 7 7 7 6 6 6 6 6 7 9 10 10 9 8 6 5 5 4 4 4 4 4 8 9 8 7 5 3 3 4 3 3 4 2 2 2 1 3 3 5 5 3 4 8 8 9 10 11 13 13 12 10 9 10 9 9 9 9 9 10 11
8 8 7 7 7 7 7 7 6 6 7 8 9 9 9 7 6 5 4 4 4 4 4 7 10 12 13 13 9 5 3 4 2 2 4 2 1 1 1 3 3 3 2 2 4 4 6 9 11 12 13 14 15 16 13 10 10 10 10 10 11 11 12
9 7 8 8 7 7 7 6 6 6 6 6 7 9 8 8 7 5 5 5 4 4 4 8 10 12 13 13 13 9 5 4 5 4 4 5 1 2 2 4 3 2 1 5 5 4 4 5 9 12 13 13 14 14 15 16 15 11 10 9 10 12 12
8 8 8 7 7 7 7 7 6 5 5 6 7 8 8 8 6 6 5 5 4 4 4 6 10 12 13 13 13 9 5 5 6 7 7 9 4 2 4 4 2 1 2 4 4 4 5 5 7 7 7 7 7 10 13 15 16 17 12 8 9 12 14
9 8 8 8 8 8 7 7 7 6 6 6 5 6 8 7 6 6 5 5 5 5 3 8 10 12 12 13 12 9 6 6 6 6 6 7 8 2 4 3 1 1 3 5 5 7 7 6 7 7 7 8 8 8 9 10 10 9 8 7 8 11 13
9 8 9 9 9 8 7 7 7 6 5 5 4 4 5 6 5 5 5 5 5 4 3 7 10 11 12 12 11 6 5 5 6 6 6 6 6 3 1 2 1 2 4 5 9 14 12 9 8 9 9 9 9 8 8 10 15 14 11 9 9 11 12
9 9 9 9 7 6 7 7 7 6 7 6 6 5 4 5 5 6 5 4 5 4 4 5 8 9 11 11 8 6 4 6 5 6 6 5 4 4 2 0 1 3 5 6 11 14 16 14 10 10 9 9 9 9 10 9 12 15 15 15 17 19 18
10 9 8 8 8 7 7 6 6 6 7 7 7 6 5 5 4 5 6 5 5 4 3 3 6 8 9 9 7 4 4 5 6 5 6 7 6 5 4 6 5 5 7 8 13 16 18 15 10 10 9 9 11 10 11 9 7 9 13 14 15 16 18
9 9 9 8 7 8 8 8 7 7 7 7 7 7 6 6 4 4 4 5 8 6 4 2 4 5 6 5 4 3 4 4 5 6 6 7 7 7 6 6 10 11 10 12 16 17 21 17 10 10 9 8 9 11 11 10 11 11 10 8 10 13 15
9 9 9 7 7 7 6 7 7 7 6 7 7 6 6 6 6 4 4 5 5 5 4 2 1 1 4 5 5 3 3 4 4 4 5 5 6 7 7 6 8 11 14 15 17 19 19 20 12 9 8 7 9 11 11 10 11 11 10 9 11 13 15
10 8 7 7 7 7 7 7 6 6 5 7 7 7 7 6 6 5 4 4 5 5 4 4 1 0 3 5 5 5 3 2 2 3 4 5 5 6 7 7 6 11 15 17 18 19 18 18 16 9 7 6 7 12 14 9 11 14 10 11 12 13 14
9 8 7 7 7 6 5 6 6 6 6 6 7 6 5 5 6 6 5 4 4 4 5 7 3 3 2 5 5 5 4 2 1 1 4 4 5 6 7 6 7 12 17 17 17 18 18 16 16 7 9 11 15 17 13 8 7 9 10 10 11 12 14
8 7 7 7 7 7 6 7 6 6 6 5 5 5 5 5 4 5 4 5 4 4 4 4 6 2 2 5 5 7 5 3 6 2 2 5 5 7 5 6 9 15 18 16 16 17 16 15 10 9 15 14 14 17 12 7 8 9 10 11 11 13 14
7 7 7 7 7 7 6 6 7 6 6 6 5 5 4 6 5 5 5 5 4 3 3 2 4 5 3 5 6 7 8 8 7 4 3 4 5 5 6 7 11 17 18 17 16 15 14 11 9 14 15 15 14 13 8 8 9 10 10 11 12 13 14
Wind_Direction
97 100 91 83 74 78 79 77 75 61 45 44 43 46 48 41 38 39 41 40 41 41 39 36 45 48 52 47 45 42 35 36 40 44 33 20 31 18 3 15 17 10 10 36 30 10 335 331 325 345 14 356 345 358 8 352 356 349 340 340 340 343 342
107 103 97 93 86 74 78 69 75 68 58 51 49 48 44 39 39 46 42 42 44 42 40 38 47 54 55 55 46 42 40 35 41 48 47 29 32 30 10 22 19 12 5 32 32 17 15 336 325 343 334 336 338 32 353 357 347 339 333 336 337 335 355
100 101 104 105 94 82 84 69 63 70 63 54 47 47 47 39 42 47 45 43 40 39 43 38 45 56 56 60 55 57 52 49 38 52 51 34 27 13 29 14 12 5 37 43 30 21 9 46 347 332 341 340 335 335 358 346 341 337 339 339 332 352 352
109 111 109 100 104 89 88 83 81 77 69 62 54 49 47 44 44 45 42 41 39 37 40 36 36 48 58 60 52 49 47 53 41 44 28 22 18 16 8 10 3 24 27 28 13 17 12 354 345 336 329 339 330 323 339 342 334 339 341 330 350 352 345
115 118 117 130 123 117 111 88 73 69 61 58 51 57 49 45 48 42 39 39 37 36 37 34 33 39 45 38 26 38 40 37 30 34 34 30 25 21 12 13 24 35 38 33 27 19 10 353 345 332 336 337 321 317 318 330 328 345 332 348 353 342 341
77 102 114 116 123 121 108 90 80 77 67 59 42 57 59 56 51 45 38 38 36 32 35 36 35 44 48 33 28 25 36 44 41 42 39 30 31 24 13 26 38 36 32 29 30 19 0 349 352 349 347 345 330 327 333 339 334 334 343 350 343 340 341
73 85 91 94 96 98 102 90 88 87 80 74 57 51 59 64 55 50 45 41 37 35 37 38 40 39 48 42 30 24 27 41 47 41 39 34 30 30 37 45 40 32 29 26 25 17 13 14 13 6 349 345 340 330 326 333 335 334 342 350 338 339 345
81 85 89 97 104 103 84 89 92 90 90 78 67 57 57 65 61 50 49 45 36 36 38 40 39 37 36 38 31 27 29 41 50 46 42 36 30 32 45 50 44 35 25 28 27 31 29 26 19 8 0 349 345 344 338 336 330 334 328 325 343 340 348
92 93 98 99 94 88 96 100 98 98 97 87 74 65 57 72 66 60 54 47 41 39 38 43 44 42 35 35 29 24 26 26 46 48 45 37 29 33 45 50 48 35 30 34 38 35 32 26 19 8 6 4 353 339 341 335 335 318 336 331 328 340 344
99 105 109 105 85 86 97 98 100 109 104 96 89 74 71 70 77 72 61 54 46 40 39 39 44 45 40 37 32 28 28 28 41 40 44 41 30 31 35 52 49 45 40 40 39 35 28 22 15 7 9 5 355 340 336 333 334 326 331 343 328 324 337
114 119 120 107 98 101 94 97 98 94 102 104 99 89 76 66 58 63 63 56 49 42 38 35 38 38 44 35 30 29 32 40 40 37 39 43 32 35 46 52 47 50 39 40 40 28 26 17 8 4 358 355 355 348 332 326 320 319 319 324 322 319 329
134 125 115 104 104 97 96 96 94 96 84 83 86 81 79 73 67 57 55 51 45 42 34 29 28 30 30 43 30 32 24 43 46 47 44 44 33 47 54 53 47 47 40 36 29 24 16 12 1 358 351 350 350 342 330 319 316 316 322 317 319 323 322
129 117 116 111 101 104 106 100 94 83 89 85 84 83 78 76 68 62 54 51 44 39 35 26 22 23 20 19 37 32 30 47 51 51 45 34 42 57 60 55 51 45 38 34 22 10 6 359 359 354 350 347 341 337 329 320 311 309 330 320 322 318 320
112 107 104 104 107 109 108 108 105 106 92 90 94 89 86 79 72 65 59 53 47 40 34 26 17 16 19 9 6 37 40 47 48 47 52 42 47 65 64 59 53 49 39 37 5 356 353 357 352 348 348 345 341 341 340 334 327 321 318 322 311 311 316
101 98 96 99 101 99 99 99 104 94 96 90 83 84 83 80 74 68 63 55 48 40 32 27 16 12 15 9 351 35 41 45 37 40 60 49 50 65 66 64 56 50 42 31 9 359 359 358 353 351 351 351 348 345 346 339 334 327 325 327 321 322 319
106 106 108 107 110 109 102 97 92 97 100 93 85 88 83 76 70 68 66 59 50 41 31 23 14 14 12 8 351 22 51 53 39 54 66 61 60 66 67 65 59 45 30 28 17 13 7 360 358 356 352 349 345 337 333 331 322 328 325 325 324 327 327
106 112 113 117 117 117 115 111 104 97 99 94 91 85 81 76 71 67 63 59 53 43 33 21 15 14 13 359 0 351 48 60 48 67 81 74 67 72 81 75 62 41 41 41 28 18 7 3 1 356 348 341 331 326 324 321 321 313 317 320 330 324 319
113 113 116 117 114 110 110 110 108 101 84 81 86 88 83 79 75 67 61 59 54 46 36 24 16 12 5 1 359 352 351 58 62 60 83 85 84 83 87 97 71 50 55 51 28 22 7 3 356 350 339 327 320 316 317 319 319 317 319 317 317 317 316
119 121 123 121 118 115 111 108 105 97 97 95 90 87 87 82 80 74 66 59 54 50 40 29 23 11 3 359 356 356 350 44 67 60 83 92 91 89 90 83 57 70 68 59 37 24 7 353 347 342 330 321 317 312 311 316 319 321 320 321 324 320 322
127 127 126 124 115 105 106 110 109 108 102 97 95 91 88 89 85 81 73 63 55 46 39 31 24 13 4 2 357 354 358 359 60 25 85 99 96 91 50 52 74 83 86 77 52 26 359 344 344 336 326 318 316 314 311 314 321 323 323 322 322 323 323
129 130 123 109 102 101 98 97 107 113 110 107 105 99 95 93 89 85 80 71 57 49 39 31 21 11 7 1 355 354 354 335 16 17 65 90 98 89 58 61 105 115 114 96 64 26 0 342 336 334 325 321 318 317 310 308 317 320 321 321 322 326 325
128 123 117 110 104 101 100 102 101 102 104 105 97 94 95 91 90 87 81 72 59 47 43 31 21 6 1 0 0 355 336 337 315 40 45 93 96 94 82 70 127 131 90 66 55 23 355 339 337 331 323 323 317 315 304 301 312 314 314 317 317 317 315
126 120 116 117 117 116 114 108 100 94 97 102 101 95 86 83 84 86 83 69 59 49 40 31 17 19 20 355 352 341 334 332 325 44 47 92 95 94 95 77 76 62 86 79 24 356 342 335 328 324 317 318 314 310 301 303 309 310 311 315 318 319 318
123 122 122 119 116 113 111 108 104 100 99 103 105 102 97 94 92 86 85 77 58 50 37 18 14 26 30 22 8 355 335 323 314 62 30 77 134 95 55 90 100 54 50 28 333 336 331 325 317 319 316 311 306 305 306 306 302 305 308 307 310 312 313
128 129 124 120 117 115 112 108 106 104 103 107 112 110 108 108 105 101 92 80 63 46 34 10 21 22 18 15 14 359 333 331 349 64 38 27 111 162 109 81 81 61 36 351 333 328 318 310 311 313 312 306 303 300 295 293 301 304 302 306 308 310 310
134 132 129 125 120 118 117 114 110 105 104 110 112 116 122 117 112 110 96 80 67 47 42 12 24 25 21 15 9 13 359 356 15 352 9 347 92 173 100 85 69 31 285 315 322 312 302 307 309 309 304 300 296 294 296 299 292 283 287 291 297 305 308
136 134 129 124 120 119 119 118 117 110 104 95 103 122 130 128 129 115 104 91 72 55 41 15 29 27 23 18 13 17 1 13 26 18 8 3 337 126 90 100 80 336 300 294 298 300 312 319 312 307 306 301 296 296 298 295 295 292 287 281 292 299 302
135 132 126 123 121 123 125 123 117 118 114 114 112 118 132 138 136 129 117 101 80 51 28 19 30 30 26 20 14 25 3 9 21 13 7 7 359 39 114 126 133 317 279 299 282 322 335 326 315 308 306 306 302 299 297 298 297 297 297 294 289 290 292
134 130 127 127 132 137 138 137 135 134 122 116 108 95 90 109 125 128 128 110 85 57 26 23 31 31 28 22 23 23 10 17 17 5 3 4 359 348 143 124 101 322 302 282 316 332 330 333 324 318 316 311 308 303 296 289 288 289 292 294 293 289 290
133 131 133 135 139 139 133 129 127 124 119 121 112 103 104 100 114 127 130 115 105 85 46 27 39 35 28 25 27 11 11 18 12 5 354 349 346 339 295 226 260 305 296 315 322 332 329 339 326 321 315 312 309 307 300 298 296 301 302 296 292 288 284
135 134 135 139 140 138 134 130 133 131 131 132 127 132 120 108 113 125 134 143 135 115 88 44 53 41 33 25 26 24 359 18 3 3 352 345 350 347 303 286 294 306 321 318 325 330 327 333 327 319 317 316 316 312 303 301 310 310 305 296 287 290 303
135 135 137 143 142 141 143 146 147 142 146 144 146 142 134 127 131 132 139 146 143 130 132 87 56 42 45 32 29 10 11 21 14 354 353 341 340 344 329 305 314 322 319 318 326 327 324 326 325 317 318 317 310 307 301 313 319 316 318 311 310 318 317
136 138 142 144 142 144 144 136 143 149 154 148 148 151 145 150 154 173 175 147 149 145 146 146 107 52 43 40 36 24 21 30 6 351 344 338 337 326 315 313 319 312 314 319 323 323 322 322 323 318 322 318 306 307 312 321 314 317 316 309 314 320 318
137 139 141 143 141 138 141 146 148 143 143 142 142 151 159 164 170 181 185 172 145 159 155 158 201 187 43 53 55 51 27 18 357 347 330 325 319 311 304 307 312 312 318 324 324 322 320 320 323 323 315 305 297 299 311 314 314 322 317 318 320 321 321
137 140 143 137 138 146 150 134 136 137 138 138 146 160 161 168 176 183 181 172 144 152 163 160 180 239 42 64 66 62 42 331 332 344 340 326 316 308 299 301 316 316 319 323 321 318 319 319 321 325 314 311 315 330 332 315 316 325 326 324 323 322 323
140 141 141 142 141 144 139 129 130 131 136 143 162 175 179 185 184 188 149 150 143 143 152 172 171 179 85 74 43 34 31 356 334 0 346 320 311 303 297 310 313 318 319 321 321 319 320 317 317 321 329 332 329 333 333 328 329 332 328 327 324 326 327
137 138 142 143 141 141 137 135 140 151 161 165 179 185 200 176 174 160 154 145 148 150 152 149 183 169 79 59 37 18 5 355 351 347 343 325 311 306 316 320 315 317 322 328 324 320 315 314 317 321 331 330 332 336 336 333 340 336 331 329 330 328 330